Home > Weather > Omaha > Past weeks

Flag for USA Past Weather in Omaha, Nebraska, USA — Yesterday and Last 2 Weeks

Now
69 °F

Sunny.


Feels Like: 69 °F
Forecast: 65 / 79 °F
Wind: 7 mph from South

Location: Millard Airport

Current Time: May 25, 2016 at 11:59:43 AM

Latest Report: May 25, 2016 at 11:15 AM


Visibility: 10 mi

Pressure: 29.86 "Hg

Humidity: 76%

Dew Point: 61 °F

Location of OmahaLocation

Past Weather in Omaha — Graph

°F

Omaha Temperature Yesterday

Maximum temperature yesterday: 82 °F (at 4:55 PM)
Minimum temperature yesterday: 59 °F (at 3:35 AM)
Average temperature yesterday: 70 °F

High & Low Weather Summary for the Past Weeks

 TemperatureHumidityPressure
High83 °F (May 22, 5:55 PM)97% (May 17, 6:55 AM)30.33 "Hg (May 17, 6:55 AM)
Low38 °F (May 15, 6:35 AM)27% (May 15, 4:35 PM)29.71 "Hg (May 25, 4:15 AM)
Average61 °F66%30.06 "Hg
* Reported May 10 10:15 AM — May 25 10:55 AM, Omaha, Weather by CustomWeather, © 2016

Note: Actual official high and low records may vary slightly from our data, if they occured in-between our weather recording intervals... More about our weather records

Advertising

Omaha Weather History for the Previous 24 Hours

Scroll right to see more
 ConditionsComfort  
Time TempWeatherWind HumidityBarometerVisibility
10:55 AM
Wed, May 25
68 °FSunny.6 mph74%29.87 "Hg10 mi
10:35 AM69 °FSunny.3 mph74%29.86 "Hg10 mi
10:15 AM68 °FSunny.9 mph76%29.86 "Hg10 mi
9:55 AM68 °FSunny.9 mph78%29.87 "Hg10 mi
9:35 AM68 °FSunny.8 mph83%29.86 "Hg10 mi
9:15 AM68 °FSunny.No wind80%29.86 "Hg10 mi
8:55 AM67 °FScattered clouds.No wind83%29.89 "Hg10 mi
8:35 AM67 °FScattered clouds.No wind79%29.89 "Hg10 mi
8:15 AM66 °FScattered clouds.No wind86%29.89 "Hg10 mi
7:55 AM65 °FLight rain. Broken clouds.No wind87%29.89 "Hg10 mi
7:15 AM65 °FScattered clouds.No wind86%29.86 "Hg10 mi
6:55 AM65 °FClear.No wind87%29.83 "Hg10 mi
6:35 AM65 °FPassing clouds.No wind82%29.83 "Hg10 mi
6:15 AM65 °FMostly cloudy.No wind82%29.85 "Hg10 mi
5:55 AM65 °FPassing clouds.No wind83%29.83 "Hg10 mi
5:35 AM67 °FPassing clouds.No wind74%29.82 "Hg10 mi
5:15 AM69 °FPassing clouds.6 mph68%29.79 "Hg10 mi
4:55 AM71 °FClear.7 mph62%29.77 "Hg10 mi
4:35 AM69 °FPassing clouds.13 mph66%29.74 "Hg10 mi
4:15 AM67 °FLight rain. Overcast.21 mph75%29.71 "Hg10 mi
3:55 AM67 °FLight rain. Overcast.13 mph73%29.74 "Hg10 mi
3:35 AM65 °FLight rain. Mostly cloudy.8 mph85%29.79 "Hg10 mi
3:15 AM64 °FLight rain. Overcast.No wind88%29.79 "Hg10 mi
2:55 AM64 °FLight rain. Mostly cloudy.3 mph88%29.81 "Hg10 mi
2:35 AM64 °FLight rain. Overcast.5 mph88%29.84 "Hg10 mi
2:15 AM65 °FThunderstorms. Mostly cloudy.No wind83%29.87 "Hg10 mi
1:55 AM65 °FThunderstorms. Overcast.8 mph83%29.88 "Hg10 mi
1:15 AM73 °FOvercast.12 mph77%29.84 "Hg10 mi
12:55 AM73 °FPassing clouds.7 mph77%29.85 "Hg10 mi
12:35 AM73 °FPassing clouds.10 mph75%29.85 "Hg10 mi
12:15 AM73 °FOvercast.12 mph75%29.86 "Hg10 mi
11:55 PM
Tue, May 24
73 °FPartly cloudy.12 mph75%29.87 "Hg10 mi
11:15 PM72 °FPassing clouds.7 mph78%29.86 "Hg10 mi
10:55 PM73 °FPassing clouds.6 mph74%29.86 "Hg10 mi
10:15 PM73 °FClear.3 mph65%29.86 "Hg10 mi
9:55 PM72 °FClear.5 mph67%29.85 "Hg10 mi
9:15 PM74 °FSunny.5 mph63%29.85 "Hg10 mi
8:55 PM74 °FSunny.3 mph64%29.84 "Hg10 mi
8:35 PM76 °FSunny.7 mph59%29.84 "Hg10 mi
8:15 PM77 °FSunny.5 mph57%29.84 "Hg10 mi
7:55 PM78 °FSunny.5 mph54%29.85 "Hg10 mi
7:15 PM80 °FSunny.6 mph51%29.86 "Hg10 mi
6:55 PM81 °FSunny.7 mph50%29.86 "Hg10 mi
6:15 PM81 °FSunny.5 mph47%29.86 "Hg10 mi
5:55 PM82 °FSunny.6 mph47%29.87 "Hg10 mi
5:35 PM82 °FSunny.6 mph49%29.87 "Hg10 mi
5:15 PM82 °FSunny.6 mph47%29.87 "Hg10 mi
4:55 PM82 °FSunny.7 mph45%29.88 "Hg10 mi
4:15 PM82 °FSunny.No wind46%29.88 "Hg10 mi
3:55 PM81 °FSunny.5 mph48%29.89 "Hg10 mi
3:15 PM80 °FSunny.3 mph51%29.89 "Hg10 mi
2:55 PM80 °FSunny.No wind47%29.89 "Hg10 mi
2:35 PM80 °FSunny.5 mph50%29.89 "Hg10 mi
2:15 PM79 °FSunny.3 mph51%29.88 "Hg10 mi
1:55 PM79 °FSunny.5 mph52%29.88 "Hg10 mi
1:35 PM77 °FSunny.No wind49%29.87 "Hg10 mi
1:15 PM77 °FSunny.No wind52%29.88 "Hg10 mi
12:55 PM77 °FSunny.3 mph53%29.88 "Hg10 mi
12:15 PM75 °FSunny.No wind60%29.88 "Hg10 mi
11:55 AM74 °FSunny.No wind65%29.89 "Hg10 mi
11:35 AM73 °FSunny.No wind69%29.88 "Hg10 mi
11:15 AM71 °FSunny.5 mph74%29.88 "Hg10 mi
Weather by CustomWeather, © 2016

See weather overviewHow to use our weather pages